sat.trackr.live / text

‹ back to catalog

HULIANWANG DIGUI-26

NORAD 63693 · 2025-086G

PAYLOAD ACTIVE UNKNOWN

§ Identity

Operator
Country
PRC
Launch date
2025-04-28
Launch site
WSC
Launch vehicle
Mass (kg)
RCS (m²)

External: N2YO · Heavens-Above · Gunter

§ Orbital elements

Epoch: 2026-09-21T21:36:23.044608Z

Period
108.73 min
Inclination
86.5010°
Eccentricity
0.0001787
Mean motion
13.24410700 rev/d
Perigee alt
1,166.6 km
Apogee alt
1,169.3 km
Semi-major
7,546.1 km
B*
-1.7807e-4
RAAN
280.6491°
Arg perigee
70.7881°
Mean anomaly
289.3447°
Rev number
6,766

§ Raw data

HULIANWANG DIGUI-261 63693U 25086G   26264.90026672 -.00000062  00000+0 -17807-3 0  99952 63693  86.5010 280.6491 0001787  70.7881 289.3447 13.24410700 67667

JSON: /api/v1/satellites/63693 · /tle

For live sub-satellite position, see the globe view (requires WebGL).

§ Visibility from observer

Set your observer location to see the next 7 days of passes ≥ 10°. The values pass through the URL so the page stays shareable.

No JS? Fill the form by hand. The geolocation button needs JavaScript.